Theta_e
303 303 302 303 303 303 302 298 296 302 301 296 292 297 301 302 302 301 303 302 302 302 302 303 301 304 306 305 304 309 310 312 310 311 312 311 311 312 313 312 311 307 310 311
303 303 302 302 302 302 301 297 297 300 298 296 295 299 301 301 302 302 304 304 303 302 303 305 304 299 303 304 307 309 310 308 307 310 308 309 311 310 309 310 306 311 311 312
302 302 302 301 301 302 300 295 297 296 294 293 297 300 301 302 300 301 303 303 302 303 304 303 305 301 305 304 306 308 309 312 308 308 308 311 311 310 308 306 309 310 310 311
302 302 302 301 301 303 301 294 298 296 297 298 296 298 300 301 302 300 301 303 303 302 305 304 305 302 304 305 306 309 307 308 310 311 311 311 310 310 309 307 309 310 311 312
302 302 301 302 301 303 300 298 296 293 295 295 297 297 300 302 301 302 303 303 302 302 304 303 305 304 304 305 305 307 303 309 309 309 309 309 309 308 309 309 310 310 310 312
302 302 301 302 301 302 299 297 296 295 296 295 297 297 300 301 301 301 301 302 302 303 303 301 301 300 299 302 305 305 305 305 306 309 305 305 306 306 310 310 309 310 310 309
302 303 301 302 302 300 300 298 295 296 299 296 297 300 301 301 302 303 301 301 302 301 299 299 300 299 300 300 302 301 304 303 304 307 303 308 303 307 309 310 310 309 308 308
302 303 302 301 302 301 299 298 296 294 296 295 299 300 300 298 298 300 301 300 299 297 301 303 305 303 304 304 303 301 300 302 306 306 305 303 305 306 309 311 309 308 308 307
301 302 303 302 302 301 299 298 297 294 295 296 297 297 297 297 298 298 301 298 298 300 301 303 306 304 303 304 303 300 299 299 304 303 306 307 303 306 306 306 310 307 306 306
301 301 301 302 302 302 298 297 297 295 294 293 294 295 297 295 296 298 297 299 299 298 301 304 301 303 301 304 304 303 302 300 304 304 305 304 300 304 304 308 305 305 304 304
301 301 301 301 301 301 298 297 296 295 292 293 293 294 295 295 295 299 297 298 296 297 303 303 301 301 299 301 299 301 301 300 302 302 305 304 301 304 308 303 304 303 303 302
301 301 301 301 302 300 298 297 297 296 294 293 294 295 295 296 296 295 294 297 297 297 300 298 298 301 291 297 300 297 301 298 299 301 302 298 299 304 301 301 303 303 302 301
300 301 301 302 302 301 300 298 297 296 291 291 293 293 295 295 296 297 297 293 295 297 294 295 297 300 297 299 297 298 297 295 300 302 299 298 298 299 301 301 302 301 301 300
299 300 301 301 302 302 302 301 297 296 292 294 292 294 294 295 296 296 296 296 295 294 293 296 298 299 296 297 296 296 296 296 298 298 297 297 297 296 299 300 301 301 300 300
301 302 302 301 301 303 302 302 300 297 295 293 292 291 293 294 295 295 295 295 293 293 295 296 298 295 295 293 293 293 293 297 299 298 295 298 297 298 298 300 301 300 300 300
302 303 303 303 302 301 302 294 296 296 297 293 295 290 292 294 294 295 294 294 291 292 295 295 293 292 296 296 295 293 293 294 295 296 296 296 297 298 297 301 300 300 300 300
303 303 303 304 303 301 300 294 296 296 297 293 294 293 291 293 293 291 291 291 291 292 293 294 293 293 295 295 296 295 291 292 292 292 295 298 299 299 297 300 300 303 301 301
303 304 303 304 304 302 301 301 298 296 296 293 292 292 290 292 292 293 289 292 290 291 293 291 293 292 292 296 295 293 293 291 290 290 292 296 296 297 298 299 299 299 299 298
305 305 304 303 302 299 296 295 295 295 295 293 293 290 291 290 291 291 291 291 292 291 293 292 294 295 296 297 295 294 292 294 293 292 292 292 295 297 297 297 297 299 300 297
304 304 298 295 297 296 295 295 293 292 291 291 293 289 292 291 292 292 292 291 294 288 294 291 294 295 294 294 293 292 292 291 291 291 293 293 294 295 296 296 298 300 301 299
299 297 296 296 295 295 292 293 294 293 295 293 292 291 292 290 292 294 293 288 291 291 293 294 294 295 295 294 292 290 290 289 289 290 291 293 295 295 295 295 296 297 298 297
300 299 297 296 293 292 293 293 291 293 295 291 292 291 290 290 290 293 293 291 286 292 291 292 294 294 293 292 292 292 289 289 289 290 290 292 294 295 295 295 295 297 299 299
299 297 295 295 292 291 294 297 295 289 291 290 291 292 292 291 292 291 291 291 292 290 285 292 292 292 292 291 291 291 289 290 290 291 292 293 294 296 296 295 297 298 297 298
301 300 302 298 295 295 297 298 298 292 290 290 291 291 294 293 294 292 291 292 291 289 290 292 290 289 292 291 291 290 290 290 289 290 291 292 293 294 295 296 297 297 296 298
302 300 305 302 296 289 290 289 291 288 289 291 293 292 294 293 294 294 292 291 291 292 292 291 289 289 285 287 291 289 288 288 287 287 287 288 291 292 292 295 296 296 296 296
298 299 301 293 292 293 293 291 293 290 290 290 292 293 294 296 295 295 295 294 293 293 288 289 283 286 284 291 291 289 287 285 286 288 290 291 291 291 292 294 294 295 295 295
297 300 298 294 293 297 294 293 293 291 292 292 291 294 296 291 290 293 293 294 293 290 288 286 287 291 292 290 290 290 290 289 290 290 292 292 293 292 291 289 294 295 295 295
Wind_Speed
14 14 13 13 20 22 7 3 3 8 4 4 1 2 2 2 3 6 3 4 3 3 3 3 2 3 3 1 6 2 3 1 3 4 3 3 2 3 2 1 2 2 2 4
10 11 14 15 21 19 2 2 1 5 2 4 2 2 4 3 4 4 2 2 2 2 4 2 3 3 4 4 3 2 2 1 3 4 2 1 4 2 3 3 1 3 1 5
10 11 14 19 21 11 2 3 3 4 4 1 4 3 3 3 3 3 3 2 2 3 1 1 3 1 2 2 3 4 1 2 3 4 4 2 4 3 3 1 1 3 4 7
8 10 14 21 17 7 3 3 1 2 2 4 3 2 1 3 3 4 4 2 2 2 3 1 1 1 4 2 4 1 2 1 1 6 5 2 3 5 5 1 4 3 4 8
6 8 14 20 17 6 7 3 3 3 2 1 2 5 2 2 1 2 3 4 3 2 3 3 5 3 3 4 3 0 1 2 2 4 6 4 4 8 7 4 4 4 5 3
4 6 11 17 19 7 5 3 3 3 3 2 2 1 2 2 2 2 1 3 2 2 1 3 2 2 3 2 1 2 1 2 1 4 3 5 7 6 6 2 4 2 2 2
5 5 7 12 16 15 7 3 3 3 1 2 1 1 2 3 2 3 1 1 2 2 4 4 2 3 6 5 3 3 2 1 1 3 4 2 5 0 2 4 7 6 4 3
5 7 4 6 10 9 12 4 4 3 3 1 1 3 4 3 1 2 1 1 1 2 3 3 4 4 3 2 4 5 4 3 1 2 2 7 2 4 4 4 5 6 5 3
5 8 4 2 5 7 7 8 4 4 5 4 2 1 1 3 2 1 1 2 2 1 2 1 3 3 3 3 3 1 3 2 2 2 0 3 4 3 3 3 4 7 6 5
8 5 5 3 1 3 4 6 2 2 3 3 5 3 3 3 1 1 2 1 0 2 1 1 3 3 2 3 3 4 2 1 4 4 4 7 6 5 4 3 4 5 6 5
12 8 6 4 2 2 2 4 4 0 2 2 6 5 4 2 2 2 1 2 3 2 2 3 2 3 3 2 4 4 6 5 4 2 2 7 6 4 6 4 1 5 5 5
12 11 8 6 3 2 2 2 3 4 4 2 6 7 5 3 5 4 1 2 2 3 3 1 1 3 0 3 4 1 3 6 3 8 6 3 7 3 5 4 4 5 5 5
14 11 10 8 4 4 5 4 2 1 3 2 1 5 9 7 5 5 4 2 3 1 2 3 1 4 3 3 5 2 5 4 4 2 4 10 7 5 4 6 5 5 4 7
14 13 10 9 8 5 5 5 5 1 3 1 3 3 3 6 8 5 1 4 4 5 2 2 2 2 3 3 3 4 4 5 4 6 9 4 10 10 8 8 6 6 5 7
13 13 11 9 9 9 6 7 8 5 2 2 3 3 4 6 9 7 4 3 2 1 1 2 3 2 2 1 1 4 5 6 5 6 6 2 6 4 12 11 11 10 9 6
16 15 15 13 11 8 2 3 1 4 2 2 3 1 1 4 5 8 8 6 2 2 2 3 3 2 1 1 3 6 6 4 3 5 3 4 7 7 7 12 10 10 11 9
16 17 17 16 14 12 4 3 1 3 2 2 4 2 1 3 3 1 1 2 1 2 2 2 1 2 3 2 4 6 6 8 8 9 3 7 6 6 7 7 9 16 15 16
16 16 17 18 14 8 8 12 8 6 3 3 1 3 2 6 3 2 1 1 1 1 1 0 2 0 1 5 7 8 6 8 10 9 9 10 5 4 4 5 6 8 8 8
12 19 22 15 5 6 4 7 7 9 3 3 3 3 4 1 1 2 1 0 1 0 2 2 3 2 6 7 7 8 6 4 12 12 8 8 10 8 5 7 7 8 10 8
22 24 5 3 6 9 13 4 2 2 1 1 4 3 3 4 1 0 3 0 2 2 2 2 3 4 7 11 11 10 9 9 6 5 6 5 6 9 8 9 9 12 11 10
6 4 2 7 14 5 2 2 2 2 3 4 3 4 4 3 3 3 2 2 1 1 3 3 2 3 5 4 6 7 8 7 8 9 12 8 6 6 8 8 10 12 13 11
7 9 8 7 2 2 3 3 1 4 5 3 5 4 3 2 2 3 2 2 2 5 2 2 3 4 6 5 7 7 7 7 9 10 7 7 8 8 6 6 7 16 22 19
8 2 3 3 1 1 8 8 4 2 4 4 3 3 3 2 1 3 3 3 4 2 2 4 4 3 5 6 5 6 5 6 6 8 9 9 10 12 10 8 15 16 17 23
2 4 5 6 5 5 5 5 4 3 4 5 3 3 2 2 3 3 3 1 2 2 2 6 3 5 4 5 4 4 8 7 7 7 10 8 9 11 17 18 20 17 17 20
4 4 6 8 3 0 1 1 3 2 4 4 3 3 2 2 3 1 4 2 4 5 5 3 4 5 3 3 4 7 6 6 6 6 4 7 11 11 15 19 20 21 23 20
3 6 4 1 0 2 2 3 2 3 3 2 2 3 3 4 4 3 7 6 7 4 4 4 2 2 3 3 4 5 6 7 8 11 8 11 11 11 16 20 20 20 20 23
5 5 2 4 0 3 4 4 3 8 3 3 3 6 8 3 4 3 5 6 4 4 3 3 5 4 3 4 6 6 9 10 14 15 17 16 17 15 14 9 20 17 21 24
Wind_Direction
61 50 33 15 6 7 34 66 42 348 27 51 2 45 33 96 8 26 76 101 115 130 158 140 203 208 244 257 162 196 203 295 284 254 196 241 302 266 249 226 256 226 269 276
49 34 18 6 355 355 12 85 272 356 16 92 11 35 42 75 44 31 52 87 89 163 160 113 228 231 262 258 197 208 174 234 350 341 23 82 261 269 241 242 66 272 305 299
48 29 19 4 352 357 18 84 38 347 44 44 102 86 31 82 30 49 54 91 102 126 112 6 176 277 279 314 234 237 154 228 198 205 226 253 304 307 309 174 173 285 235 287
54 29 17 10 6 28 88 29 134 185 23 12 58 64 67 55 42 4 18 38 41 156 124 86 106 174 291 235 326 70 156 262 245 252 251 286 267 286 309 319 242 226 318 318
61 42 22 22 23 54 80 105 121 28 85 327 60 356 53 100 143 19 340 95 321 338 137 197 191 188 228 231 352 279 5 292 91 277 237 240 264 266 264 243 262 277 305 307
76 77 37 29 36 56 89 109 112 102 335 8 87 325 57 98 159 8 37 161 101 44 226 223 268 274 336 316 328 315 1 160 96 264 5 307 288 226 210 257 233 230 326 305
104 114 64 39 39 52 103 130 123 92 358 83 128 119 85 47 16 128 272 244 148 257 357 314 250 242 240 230 246 175 173 126 162 276 354 282 258 313 175 231 259 211 257 276
133 152 103 55 37 48 66 112 141 120 114 209 331 118 129 124 358 69 204 279 255 23 3 16 357 337 356 184 216 187 175 137 213 275 248 288 273 228 187 180 289 182 191 222
186 174 169 78 25 27 48 55 115 115 123 232 145 133 315 154 154 94 166 315 303 126 98 96 179 223 223 300 333 84 95 99 149 186 220 247 258 161 139 106 285 162 179 210
236 219 200 207 2 5 58 51 104 94 110 221 154 175 177 128 95 147 278 267 119 79 111 140 179 257 206 258 244 188 208 194 203 203 254 281 228 163 160 144 244 158 171 179
256 251 251 229 236 318 307 88 47 337 116 239 186 188 150 138 132 150 225 47 334 27 117 158 208 200 234 281 235 196 186 164 209 129 239 296 154 79 166 214 134 161 159 159
261 263 257 248 253 335 313 325 59 103 106 192 198 207 229 221 177 141 62 174 166 201 84 287 80 232 95 191 277 135 247 196 193 188 218 254 224 179 202 179 173 199 163 164
251 260 264 257 243 272 1 338 339 56 96 9 36 241 203 212 211 192 128 246 180 168 164 161 193 253 135 217 240 249 245 175 224 352 248 225 235 231 230 197 213 202 195 171
244 248 252 265 263 270 284 328 319 17 73 140 262 172 216 204 197 204 176 131 119 113 119 152 195 222 170 231 259 225 212 149 201 267 275 304 258 226 213 212 208 186 189 190
235 242 246 247 263 267 280 289 288 269 134 239 278 303 209 191 188 179 183 153 101 117 102 158 231 222 153 225 317 247 191 193 178 225 257 231 261 231 189 187 196 198 176 188
239 236 233 231 228 252 300 4 192 217 238 74 302 189 190 164 183 171 158 170 138 148 181 222 260 275 150 232 239 249 217 240 235 265 333 250 289 301 209 193 190 188 189 191
237 238 232 222 211 210 201 183 5 178 179 55 314 304 22 153 113 45 80 136 171 163 208 232 235 265 184 244 241 222 200 220 247 240 248 270 203 253 215 198 189 192 199 201
246 229 213 205 197 210 256 254 237 182 138 111 244 273 331 171 148 190 354 120 33 231 252 184 203 275 197 257 248 263 269 281 261 237 216 241 303 278 233 193 154 179 200 199
213 181 171 153 166 187 199 179 186 195 191 193 154 176 249 135 109 124 76 135 214 155 240 243 152 207 226 234 257 264 260 243 280 292 261 248 221 255 242 203 198 199 209 199
154 143 159 188 182 160 139 129 85 0 274 239 222 128 185 136 186 153 107 306 230 237 234 120 217 260 269 259 257 278 294 292 278 286 299 221 239 220 218 214 218 216 214 207
166 170 143 126 142 151 72 186 165 168 244 195 222 181 145 203 130 189 197 185 186 315 233 171 257 268 248 267 277 283 286 283 277 254 265 266 238 214 218 226 224 225 222 213
198 154 121 136 131 56 123 207 347 203 233 194 155 187 156 154 158 113 186 159 49 237 134 110 257 248 251 283 298 313 316 309 305 308 281 269 269 260 250 245 229 224 231 232
150 152 104 139 227 66 188 196 230 221 176 186 170 138 142 115 107 72 119 134 219 68 66 233 233 268 280 271 290 297 312 323 331 341 340 310 298 289 264 265 267 261 243 241
167 159 220 199 198 231 195 198 174 197 119 143 129 105 131 136 123 144 129 180 87 10 272 234 238 232 257 308 298 303 333 349 347 342 342 333 320 304 299 284 283 280 260 258
193 189 219 215 226 123 124 112 113 222 143 134 109 79 126 130 116 163 98 45 253 214 236 234 226 216 193 279 324 335 324 330 323 314 315 312 320 308 296 302 293 280 273 271
219 223 207 153 118 167 172 189 167 169 160 108 64 127 130 199 137 147 213 153 225 244 218 233 224 239 220 249 280 279 289 280 280 293 289 300 296 284 290 299 290 280 267 261
217 218 190 154 258 206 173 161 172 159 148 168 130 176 207 105 103 219 190 209 213 215 242 222 217 214 279 297 292 280 273 277 277 274 277 277 287 289 283 274 285 275 264 255